Location: Banios
(43.0451°N, 0.2335°E)
Time: 12:33:33
(UTC+00:00)

A-11 Canister half - Pass Details

Date: 13 May 2021
Orbit: 1513 x 1686 km, 47.2° (Epoch: 14 June)

Event Time Altitude Azimuth Distance (km) Brightness Sun altitude
Rises 19:35:32 0° 292° (WNW) 4,661 14.0 -4.3°
Reaches altitude 10° 19:38:32 10° 292° (WNW) 3,684 12.8 -4.8°
Maximum altitude 19:47:51 86° 205° (SSW) 1,550 9.1 -6.2°
Drops below altitude 10° 19:57:25 10° 119° (ESE) 3,778 10.4 -7.7°
Enters shadow 19:57:49 - 119° (ESE) 3,909 10.4 -7.8°
Sets 20:00:32 0° 119° (ESE) 4,784 - -8.2°
